This is the latest recevied weather packets stored in our database for station/object KG5APU. If no packets are shown the sender has not sent any weather packets the latest 1 day(s).
| Time | Temp. | Humidity | Pressure | Rain* | Wind** | Luminosity | Snow |
|---|---|---|---|---|---|---|---|
| 1778054012 | 13.89° C | 77% | 1010.4 hPa | 0 mm | - | 0 W/m² | - |
| 1778053412 | 13.89° C | 76% | 1010.4 hPa | 0 mm | - | 0 W/m² | - |
| 1778052807 | 14.44° C | 77% | 1010.5 hPa | 0 mm | - | 0 W/m² | - |
| 1778051603 | 14.44° C | 77% | 1010.8 hPa | 0 mm | - | 0 W/m² | - |
| 1778049795 | 14.44° C | 77% | 1010.6 hPa | 0 mm | - | 0 W/m² | - |
| 1778049190 | 15° C | 78% | 1010.7 hPa | 0 mm | - | 0 W/m² | - |
| 1778046179 | 16.11° C | 79% | 1010.3 hPa | 0 mm | - | 0 W/m² | - |
| 1778044369 | 16.67° C | 80% | 1010.4 hPa | 0 mm | - | 0 W/m² | - |
| 1778043163 | 17.22° C | 80% | 1010.1 hPa | 0 mm | - | 0 W/m² | - |
| 1778041958 | 17.78° C | 80% | 1010 hPa | 0 mm | - | 0 W/m² | - |
| 1778041355 | 17.78° C | 80% | 1009.8 hPa | 0 mm | - | 0 W/m² | - |
| 1778040750 | 18.33° C | 79% | 1009.5 hPa | 0 mm | - | 0 W/m² | - |
| 1778040150 | 18.33° C | 79% | 1009.8 hPa | 0 mm | - | 0 W/m² | - |
| 1778039550 | 18.89° C | 79% | 1009.7 hPa | 0 mm | - | 0 W/m² | - |
| 1778038350 | 20° C | 78% | 1009.3 hPa | 0 mm | - | 0 W/m² | - |
| 1778037749 | 20° C | 78% | 1009.2 hPa | 0 mm | - | 0 W/m² | - |
| 1778037149 | 20.56° C | 77% | 1008.9 hPa | 0 mm | - | 0 W/m² | - |
| 1778035943 | 21.11° C | 76% | 1008.7 hPa | 0 mm | - | 0 W/m² | - |
| 1778035343 | 21.11° C | 76% | 1008.2 hPa | 0 mm | - | 0 W/m² | - |
| 1778034137 | 22.22° C | 76% | 1007.7 hPa | 0 mm | - | 0 W/m² | - |
| 1778033537 | 22.78° C | 75% | 1007 hPa | 0 mm | - | 0 W/m² | - |
| 1778032333 | 23.33° C | 74% | 1007.1 hPa | 0 mm | - | 0 W/m² | - |
| 1778031731 | 23.33° C | 74% | 1007 hPa | 0 mm | - | 0 W/m² | - |
| 1778031126 | 23.33° C | 72% | 1006.9 hPa | 0 mm | - | 0 W/m² | - |
| 1778030525 | 23.33° C | 72% | 1006.9 hPa | 0 mm | - | 0 W/m² | - |
* Rain latest hour (hover to see other rain measurements)
** Current wind speed in m/s (hover to see current wind gust speed)